| time (UTC) | temp F | wind direction | speed MPH | gust MPH | rain 1hr in | rain 24hr in | rain mn in | humidity % | barometer mb |
| 20260508225212 | 65 | 311 | 4.0 | 9.0 | 0.00 | 0.00 | 0.00 | 33 | 1005.5 |
| 20260508224633 | 66 | 203 | 3.0 | 8.0 | 0.00 | 0.00 | 0.00 | 34 | 1005.4 |
| 20260508224152 | 65 | 246 | 2.0 | 8.0 | 0.00 | 0.00 | 0.00 | 34 | 1005.4 |
| 20260508223634 | 65 | 262 | 2.0 | 6.0 | 0.00 | 0.00 | 0.00 | 35 | 1005.5 |
| 20260508223201 | 64 | 263 | 2.0 | 11.0 | 0.00 | 0.00 | 0.00 | 35 | 1005.6 |
| 20260508222647 | 64 | 219 | 6.0 | 11.0 | 0.00 | 0.00 | 0.00 | 34 | 1005.6 |
| 20260508222142 | 66 | 240 | 2.0 | 6.0 | 0.00 | 0.00 | 0.00 | 35 | 1005.6 |
| 20260508221646 | 65 | 271 | 3.0 | 8.0 | 0.00 | 0.00 | 0.00 | 34 | 1005.6 |
| 20260508221145 | 65 | 250 | 4.0 | 8.0 | 0.00 | 0.00 | 0.00 | 35 | 1005.7 |
| 20260508220648 | 65 | 270 | 0.0 | 8.0 | 0.00 | 0.00 | 0.00 | 35 | 1005.7 |
| 20260508220132 | 64 | 278 | 4.0 | 8.0 | 0.00 | 0.00 | 0.00 | 34 | 1005.7 |
| 20260508215635 | 65 | 274 | 1.0 | 5.0 | 0.00 | 0.00 | 0.00 | 37 | 1005.7 |
| 20260508215201 | 65 | 277 | 2.0 | 6.0 | 0.00 | 0.00 | 0.00 | 35 | 1005.8 |
| 20260508214644 | 65 | 215 | 2.0 | 6.0 | 0.00 | 0.00 | 0.00 | 36 | 1005.9 |
| 20260508214141 | 64 | 194 | 1.0 | 8.0 | 0.00 | 0.00 | 0.00 | 36 | 1005.9 |
| 20260508213642 | 63 | 214 | 4.0 | 12.0 | 0.00 | 0.00 | 0.00 | 35 | 1005.9 |
| 20260508213146 | 64 | 290 | 5.0 | 12.0 | 0.00 | 0.00 | 0.00 | 33 | 1005.9 |
| 20260508212647 | 66 | 292 | 5.0 | 11.0 | 0.00 | 0.00 | 0.00 | 32 | 1005.9 |
| 20260508212150 | 66 | 300 | 1.0 | 8.0 | 0.00 | 0.00 | 0.00 | 33 | 1005.8 |
| 20260508211635 | 64 | 217 | 2.0 | 12.0 | 0.00 | 0.00 | 0.00 | 33 | 1005.9 |
| 20260508211135 | 64 | 261 | 5.0 | 12.0 | 0.00 | 0.00 | 0.00 | 32 | 1006.0 |
| 20260508210640 | 65 | 330 | 3.0 | 11.0 | 0.00 | 0.00 | 0.00 | 31 | 1006.0 |
| 20260508210143 | 64 | 224 | 4.0 | 11.0 | 0.00 | 0.00 | 0.00 | 33 | 1006.1 |
| 20260508205647 | 64 | 237 | 2.0 | 14.0 | 0.00 | 0.00 | 0.00 | 33 | 1006.1 |
| 20260508205143 | 64 | 231 | 7.0 | 14.0 | 0.00 | 0.00 | 0.00 | 32 | 1006.0 |
| 20260508204711 | 64 | 295 | 4.0 | 12.0 | 0.00 | 0.00 | 0.00 | 32 | 1006.2 |
| 20260508203643 | 65 | 271 | 5.0 | 13.0 | 0.00 | 0.00 | 0.00 | 31 | 1006.2 |
| 20260508203148 | 64 | 211 | 3.0 | 10.0 | 0.00 | 0.00 | 0.00 | 34 | 1006.2 |
| 20260508202631 | 65 | 254 | 6.0 | 10.0 | 0.00 | 0.00 | 0.00 | 32 | 1006.4 |
| 20260508202151 | 65 | 253 | 1.0 | 5.0 | 0.00 | 0.00 | 0.00 | 34 | 1006.4 |
| 20260508201653 | 65 | 194 | 2.0 | 7.0 | 0.00 | 0.00 | 0.00 | 33 | 1006.6 |
| 20260508201132 | 65 | 217 | 2.0 | 7.0 | 0.00 | 0.00 | 0.00 | 36 | 1006.7 |
| 20260508200635 | 64 | 275 | 1.0 | 9.0 | 0.00 | 0.00 | 0.00 | 33 | 1006.8 |
| 20260508200140 | 64 | 248 | 2.0 | 9.0 | 0.00 | 0.00 | 0.00 | 34 | 1006.8 |
| 20260508195641 | 64 | 260 | 4.0 | 9.0 | 0.00 | 0.00 | 0.00 | 34 | 1006.9 |
| 20260508195206 | 63 | 249 | 4.0 | 10.0 | 0.00 | 0.00 | 0.00 | 34 | 1006.9 |
| 20260508194650 | 64 | 307 | 3.0 | 10.0 | 0.00 | 0.00 | 0.00 | 34 | 1006.9 |
| 20260508194148 | 64 | 248 | 1.0 | 6.0 | 0.00 | 0.00 | 0.00 | 36 | 1007.1 |
| 20260508193650 | 64 | 220 | 2.0 | 6.0 | 0.00 | 0.00 | 0.00 | 34 | 1007.3 |
| 20260508193132 | 64 | 297 | 2.0 | 14.0 | 0.00 | 0.00 | 0.00 | 35 | 1007.3 |
| 20260508192634 | 63 | 98 | 4.0 | 14.0 | 0.00 | 0.00 | 0.00 | 36 | 1007.4 |
| 20260508192200 | 62 | 252 | 1.0 | 8.0 | 0.00 | 0.00 | 0.00 | 36 | 1007.5 |
| 20260508191643 | 62 | 217 | 3.0 | 10.0 | 0.00 | 0.00 | 0.00 | 36 | 1007.7 |
| 20260508191208 | 63 | 311 | 2.0 | 8.0 | 0.00 | 0.00 | 0.00 | 36 | 1007.6 |
| 20260508190649 | 63 | 301 | 2.0 | 9.0 | 0.00 | 0.00 | 0.00 | 36 | 1007.7 |
| 20260508190149 | 62 | 293 | 4.0 | 9.0 | 0.00 | 0.00 | 0.00 | 34 | 1007.8 |
| 20260508185631 | 63 | 290 | 5.0 | 9.0 | 0.00 | 0.00 | 0.00 | 33 | 1007.8 |
| 20260508185131 | 63 | 245 | 2.0 | 8.0 | 0.00 | 0.00 | 0.00 | 36 | 1007.8 |
| 20260508184637 | 63 | 317 | 2.0 | 10.0 | 0.00 | 0.00 | 0.00 | 32 | 1008.0 |
| 20260508184138 | 63 | 216 | 2.0 | 10.0 | 0.00 | 0.00 | 0.00 | 36 | 1008.1 |
| 20260508183642 | 63 | 301 | 2.0 | 6.0 | 0.00 | 0.00 | 0.00 | 33 | 1008.1 |
| 20260508183145 | 64 | 284 | 3.0 | 5.0 | 0.00 | 0.00 | 0.00 | 35 | 1008.1 |
| 20260508182648 | 63 | 233 | 1.0 | 3.0 | 0.00 | 0.00 | 0.00 | 34 | 1008.0 |
| 20260508182148 | 63 | 316 | 1.0 | 6.0 | 0.00 | 0.00 | 0.00 | 36 | 1008.1 |
| 20260508181631 | 61 | 304 | 2.0 | 8.0 | 0.00 | 0.00 | 0.00 | 40 | 1008.2 |
| 20260508181147 | 62 | 311 | 4.0 | 8.0 | 0.00 | 0.00 | 0.00 | 35 | 1008.2 |
| 20260508180631 | 62 | 274 | 1.0 | 5.0 | 0.00 | 0.00 | 0.00 | 36 | 1008.2 |
| 20260508180135 | 61 | 252 | 1.0 | 7.0 | 0.00 | 0.00 | 0.00 | 36 | 1008.4 |
| 20260508175638 | 61 | 305 | 4.0 | 7.0 | 0.00 | 0.00 | 0.00 | 35 | 1008.6 |
| 20260508175157 | 61 | 232 | 2.0 | 7.0 | 0.00 | 0.00 | 0.00 | 36 | 1008.5 |
| 20260508174638 | 61 | 309 | 1.0 | 5.0 | 0.00 | 0.00 | 0.00 | 35 | 1008.7 |
| 20260508174203 | 61 | 169 | 0.0 | 5.0 | 0.00 | 0.00 | 0.00 | 36 | 1008.9 |
| 20260508173644 | 60 | 229 | 2.0 | 7.0 | 0.00 | 0.00 | 0.00 | 36 | 1008.9 |
| 20260508173144 | 60 | 315 | 2.0 | 8.0 | 0.00 | 0.00 | 0.00 | 35 | 1009.0 |
| 20260508172645 | 60 | 167 | 2.0 | 8.0 | 0.00 | 0.00 | 0.00 | 37 | 1009.1 |
| 20260508172209 | 60 | 278 | 2.0 | 4.0 | 0.00 | 0.00 | 0.00 | 37 | 1009.0 |
| 20260508171632 | 60 | 153 | 1.0 | 5.0 | 0.00 | 0.00 | 0.00 | 39 | 1009.3 |
| 20260508171148 | 60 | 141 | 1.0 | 5.0 | 0.00 | 0.00 | 0.00 | 36 | 1009.3 |
| 20260508170651 | 60 | 311 | 3.0 | 5.0 | 0.00 | 0.00 | 0.00 | 36 | 1009.4 |
| 20260508170132 | 59 | 359 | 1.0 | 7.0 | 0.00 | 0.00 | 0.00 | 39 | 1009.5 |
| 20260508165635 | 58 | 277 | 2.0 | 9.0 | 0.00 | 0.00 | 0.00 | 38 | 1009.5 |
| 20260508165134 | 58 | 291 | 2.0 | 10.0 | 0.00 | 0.00 | 0.00 | 37 | 1009.6 |
| 20260508164703 | 58 | 280 | 5.0 | 10.0 | 0.00 | 0.00 | 0.00 | 36 | 1009.7 |
| 20260508164207 | 58 | 282 | 1.0 | 7.0 | 0.00 | 0.00 | 0.00 | 39 | 1009.7 |
| 20260508163648 | 57 | 282 | 1.0 | 6.0 | 0.00 | 0.00 | 0.00 | 38 | 1009.8 |
| 20260508163143 | 57 | 290 | 3.0 | 5.0 | 0.00 | 0.00 | 0.00 | 40 | 1009.8 |
| 20260508162645 | 56 | 115 | 1.0 | 10.0 | 0.00 | 0.00 | 0.00 | 41 | 1009.9 |
| 20260508162209 | 56 | 309 | 4.0 | 10.0 | 0.00 | 0.00 | 0.00 | 41 | 1010.0 |
| 20260508161633 | 56 | 298 | 5.0 | 9.0 | 0.00 | 0.00 | 0.00 | 42 | 1010.0 |
| 20260508161133 | 56 | 243 | 3.0 | 11.0 | 0.00 | 0.00 | 0.00 | 42 | 1010.2 |
| 20260508160636 | 56 | 265 | 7.0 | 11.0 | 0.00 | 0.00 | 0.00 | 43 | 1010.2 |
| 20260508160135 | 56 | 269 | 3.0 | 8.0 | 0.00 | 0.00 | 0.00 | 44 | 1010.2 |
| 20260508155639 | 56 | 236 | 0.0 | 8.0 | 0.00 | 0.00 | 0.00 | 44 | 1010.2 |
| 20260508155204 | 56 | 260 | 2.0 | 8.0 | 0.00 | 0.00 | 0.00 | 45 | 1010.2 |
| 20260508154645 | 56 | 47 | 2.0 | 8.0 | 0.00 | 0.00 | 0.00 | 44 | 1010.2 |
| 20260508154143 | 56 | 296 | 3.0 | 8.0 | 0.00 | 0.00 | 0.00 | 42 | 1010.2 |
| 20260508153647 | 56 | 255 | 1.0 | 8.0 | 0.00 | 0.00 | 0.00 | 43 | 1010.2 |
| 20260508153132 | 55 | 227 | 2.0 | 8.0 | 0.00 | 0.00 | 0.00 | 44 | 1010.2 |
| 20260508152635 | 55 | 321 | 2.0 | 8.0 | 0.00 | 0.00 | 0.00 | 43 | 1010.3 |
| 20260508152132 | 56 | 320 | 0.0 | 5.0 | 0.00 | 0.00 | 0.00 | 44 | 1010.4 |
| 20260508151635 | 54 | 116 | 1.0 | 5.0 | 0.00 | 0.00 | 0.00 | 46 | 1010.3 |
| 20260508151134 | 54 | 284 | 0.0 | 5.0 | 0.00 | 0.00 | 0.00 | 44 | 1010.4 |
| 20260508150637 | 54 | 252 | 1.0 | 4.0 | 0.00 | 0.00 | 0.00 | 46 | 1010.4 |
| 20260508150156 | 54 | 314 | 0.0 | 5.0 | 0.00 | 0.00 | 0.00 | 50 | 1010.5 |
| 20260508145637 | 54 | 311 | 2.0 | 5.0 | 0.00 | 0.00 | 0.00 | 48 | 1010.5 |
| 20260508145153 | 53 | 86 | 1.0 | 5.0 | 0.00 | 0.00 | 0.00 | 49 | 1010.5 |
| 20260508144700 | 53 | 129 | 3.0 | 5.0 | 0.00 | 0.00 | 0.00 | 50 | 1010.5 |
| 20260508144138 | 53 | 274 | 0.0 | 2.0 | 0.00 | 0.00 | 0.00 | 54 | 1010.6 |
| 20260508143640 | 53 | 276 | 0.0 | 2.0 | 0.00 | 0.00 | 0.00 | 54 | 1010.6 |
| 20260508143143 | 52 | 123 | 1.0 | 2.0 | 0.00 | 0.00 | 0.00 | 53 | 1010.7 |
| 20260508142647 | 52 | 79 | 0.0 | 2.0 | 0.00 | 0.00 | 0.00 | 55 | 1010.8 |
| 20260508142144 | 51 | 71 | 0.0 | 2.0 | 0.00 | 0.00 | 0.00 | 55 | 1010.7 |
| 20260508141648 | 51 | 69 | 0.0 | 3.0 | 0.00 | 0.00 | 0.00 | 61 | 1010.7 |
| 20260508141147 | 50 | 282 | 1.0 | 3.0 | 0.00 | 0.00 | 0.00 | 60 | 1010.7 |
| 20260508140631 | 50 | 301 | 0.0 | 4.0 | 0.00 | 0.00 | 0.00 | 61 | 1010.8 |
| 20260508140134 | 50 | 281 | 2.0 | 4.0 | 0.00 | 0.00 | 0.00 | 61 | 1010.8 |
| 20260508135636 | 50 | 324 | 1.0 | 3.0 | 0.00 | 0.00 | 0.00 | 62 | 1010.9 |
| 20260508135158 | 49 | 284 | 0.0 | 3.0 | 0.00 | 0.00 | 0.00 | 65 | 1011.0 |
| 20260508134639 | 48 | 272 | 0.0 | 3.0 | 0.00 | 0.00 | 0.00 | 68 | 1011.0 |
| 20260508134204 | 48 | 267 | 2.0 | 3.0 | 0.00 | 0.00 | 0.00 | 68 | 1011.0 |
| 20260508133646 | 48 | 230 | 0.0 | 1.0 | 0.00 | 0.00 | 0.00 | 70 | 1011.0 |
| 20260508133150 | 47 | 231 | 0.0 | 2.0 | 0.00 | 0.00 | 0.00 | 71 | 1011.0 |
| 20260508132634 | 47 | 120 | 1.0 | 2.0 | 0.00 | 0.00 | 0.00 | 74 | 1011.0 |
| 20260508132134 | 46 | 130 | 0.0 | 0.0 | 0.00 | 0.00 | 0.00 | 75 | 1011.0 |
| 20260508131638 | 46 | 130 | 0.0 | 0.0 | 0.00 | 0.00 | 0.00 | 75 | 1011.0 |
| 20260508131137 | 45 | 203 | 0.0 | 0.0 | 0.00 | 0.00 | 0.00 | 76 | 1011.0 |
| 20260508130641 | 45 | 207 | 0.0 | 0.0 | 0.00 | 0.00 | 0.00 | 77 | 1011.1 |
| 20260508130145 | 45 | 205 | 0.0 | 0.0 | 0.00 | 0.00 | 0.00 | 78 | 1011.0 |
| 20260508125646 | 44 | 141 | 0.0 | 0.0 | 0.00 | 0.00 | 0.00 | 78 | 1011.1 |
| 20260508125142 | 44 | 140 | 0.0 | 0.0 | 0.00 | 0.00 | 0.00 | 79 | 1011.0 |
| 20260508124712 | 44 | 140 | 0.0 | 0.0 | 0.00 | 0.00 | 0.00 | 80 | 1010.8 |
| 20260508124149 | 43 | 140 | 0.0 | 0.0 | 0.00 | 0.00 | 0.00 | 81 | 1010.8 |
| 20260508123633 | 43 | 259 | 0.0 | 0.0 | 0.00 | 0.00 | 0.00 | 82 | 1010.8 |
| 20260508123153 | 42 | 259 | 0.0 | 0.0 | 0.00 | 0.00 | 0.00 | 85 | 1010.7 |
| 20260508122636 | 42 | 259 | 0.0 | 0.0 | 0.00 | 0.00 | 0.00 | 87 | 1010.8 |
| 20260508122154 | 41 | 259 | 0.0 | 0.0 | 0.00 | 0.00 | 0.00 | 89 | 1010.7 |
| 20260508121637 | 40 | 259 | 0.0 | 0.0 | 0.00 | 0.00 | 0.00 | 91 | 1010.7 |
| 20260508121136 | 40 | 259 | 0.0 | 0.0 | 0.00 | 0.00 | 0.00 | 94 | 1010.7 |
| 20260508120638 | 39 | 286 | 0.0 | 0.0 | 0.00 | 0.00 | 0.00 | 94 | 1010.6 |
| 20260508120204 | 39 | 286 | 0.0 | 0.0 | 0.00 | 0.00 | 0.00 | 94 | 1010.6 |
| 20260508115647 | 39 | 287 | 0.0 | 0.0 | 0.00 | 0.00 | 0.00 | 94 | 1010.6 |
| 20260508115148 | 39 | 286 | 0.0 | 0.0 | 0.00 | 0.00 | 0.00 | 95 | 1010.4 |
| 20260508114631 | 38 | 286 | 0.0 | 0.0 | 0.00 | 0.00 | 0.00 | 94 | 1010.4 |
| 20260508114148 | 38 | 286 | 0.0 | 0.0 | 0.00 | 0.00 | 0.00 | 94 | 1010.4 |
| 20260508113650 | 38 | 286 | 0.0 | 0.0 | 0.00 | 0.00 | 0.00 | 94 | 1010.3 |
| 20260508113137 | 38 | 286 | 0.0 | 0.0 | 0.00 | 0.00 | 0.00 | 94 | 1010.3 |
| 20260508112638 | 38 | 286 | 0.0 | 0.0 | 0.00 | 0.00 | 0.00 | 94 | 1010.3 |
| 20260508112157 | 38 | 286 | 0.0 | 0.0 | 0.00 | 0.00 | 0.00 | 94 | 1010.2 |
| 20260508111706 | 38 | 286 | 0.0 | 0.0 | 0.00 | 0.00 | 0.00 | 94 | 1010.1 |
| 20260508111145 | 37 | 286 | 0.0 | 0.0 | 0.00 | 0.00 | 0.00 | 94 | 1010.1 |
| 20260508110649 | 37 | 286 | 0.0 | 0.0 | 0.00 | 0.00 | 0.00 | 94 | 1010.1 |
| 20260508110216 | 37 | 286 | 0.0 | 0.0 | 0.00 | 0.00 | 0.00 | 94 | 1010.1 |
| 20260508105656 | 37 | 286 | 0.0 | 0.0 | 0.00 | 0.00 | 0.00 | 93 | 1010.0 |
| 20260508105154 | 37 | 287 | 0.0 | 0.0 | 0.00 | 0.00 | 0.00 | 93 | 1010.0 |
| 20260508104634 | 37 | 286 | 0.0 | 0.0 | 0.00 | 0.00 | 0.00 | 93 | 1010.0 |
| 20260508104135 | 37 | 287 | 0.0 | 0.0 | 0.00 | 0.00 | 0.00 | 93 | 1009.9 |
| 20260508103635 | 37 | 286 | 0.0 | 0.0 | 0.00 | 0.00 | 0.00 | 93 | 1009.9 |
| 20260508103138 | 37 | 286 | 0.0 | 0.0 | 0.00 | 0.00 | 0.00 | 93 | 1010.0 |
| 20260508102709 | 37 | 286 | 0.0 | 0.0 | 0.00 | 0.00 | 0.00 | 92 | 1009.9 |
| 20260508102146 | 37 | 286 | 0.0 | 0.0 | 0.00 | 0.00 | 0.00 | 92 | 1009.9 |
| 20260508101630 | 38 | 286 | 0.0 | 0.0 | 0.00 | 0.00 | 0.00 | 92 | 1009.9 |
| 20260508101150 | 38 | 286 | 0.0 | 0.0 | 0.00 | 0.00 | 0.00 | 92 | 1009.9 |
| 20260508100632 | 38 | 286 | 0.0 | 0.0 | 0.00 | 0.00 | 0.00 | 92 | 1010.0 |
| 20260508100151 | 38 | 286 | 0.0 | 0.0 | 0.00 | 0.00 | 0.00 | 92 | 1010.0 |
| 20260508095652 | 38 | 286 | 0.0 | 0.0 | 0.00 | 0.00 | 0.00 | 92 | 1010.0 |
| 20260508095148 | 38 | 286 | 0.0 | 0.0 | 0.00 | 0.00 | 0.00 | 91 | 1010.0 |
| 20260508094650 | 38 | 286 | 0.0 | 0.0 | 0.00 | 0.00 | 0.00 | 91 | 1010.0 |
| 20260508094147 | 38 | 286 | 0.0 | 0.0 | 0.00 | 0.00 | 0.00 | 91 | 1010.0 |
| 20260508093631 | 38 | 286 | 0.0 | 0.0 | 0.00 | 0.00 | 0.00 | 91 | 1010.1 |
| 20260508093137 | 38 | 286 | 0.0 | 0.0 | 0.00 | 0.00 | 0.00 | 91 | 1010.1 |
| 20260508092706 | 38 | 286 | 0.0 | 0.0 | 0.00 | 0.00 | 0.00 | 91 | 1010.1 |
| 20260508092144 | 38 | 286 | 0.0 | 0.0 | 0.00 | 0.00 | 0.00 | 90 | 1010.2 |
| 20260508091650 | 38 | 286 | 0.0 | 0.0 | 0.00 | 0.00 | 0.00 | 90 | 1010.2 |
| 20260508091147 | 38 | 286 | 0.0 | 0.0 | 0.00 | 0.00 | 0.00 | 90 | 1010.2 |
| 20260508090651 | 39 | 286 | 0.0 | 0.0 | 0.00 | 0.00 | 0.00 | 89 | 1010.2 |
| 20260508090149 | 39 | 286 | 0.0 | 0.0 | 0.00 | 0.00 | 0.00 | 89 | 1010.1 |
| 20260508085633 | 39 | 286 | 0.0 | 0.0 | 0.00 | 0.00 | 0.00 | 88 | 1010.2 |
| 20260508085146 | 39 | 286 | 0.0 | 0.0 | 0.00 | 0.00 | 0.00 | 88 | 1010.1 |
| 20260508084631 | 39 | 286 | 0.0 | 0.0 | 0.00 | 0.00 | 0.00 | 88 | 1010.2 |
| 20260508084146 | 40 | 286 | 0.0 | 0.0 | 0.00 | 0.00 | 0.00 | 87 | 1010.1 |
| 20260508083631 | 40 | 286 | 0.0 | 0.0 | 0.00 | 0.00 | 0.00 | 87 | 1010.2 |
| 20260508083136 | 40 | 286 | 0.0 | 0.0 | 0.00 | 0.00 | 0.00 | 87 | 1010.2 |
| 20260508082635 | 41 | 286 | 0.0 | 0.0 | 0.00 | 0.00 | 0.00 | 86 | 1010.2 |
| 20260508082156 | 41 | 286 | 0.0 | 0.0 | 0.00 | 0.00 | 0.00 | 85 | 1010.2 |
| 20260508081639 | 41 | 286 | 0.0 | 0.0 | 0.00 | 0.00 | 0.00 | 85 | 1010.2 |
| 20260508081204 | 42 | 286 | 0.0 | 0.0 | 0.00 | 0.00 | 0.00 | 84 | 1010.2 |
| 20260508080648 | 42 | 286 | 0.0 | 0.0 | 0.00 | 0.00 | 0.00 | 83 | 1010.2 |
| 20260508080146 | 42 | 286 | 0.0 | 0.0 | 0.00 | 0.00 | 0.00 | 83 | 1010.3 |
| 20260508075650 | 42 | 286 | 0.0 | 0.0 | 0.00 | 0.00 | 0.00 | 83 | 1010.2 |
| 20260508075216 | 42 | 286 | 0.0 | 0.0 | 0.00 | 0.00 | 0.00 | 83 | 1010.2 |
| 20260508074633 | 43 | 286 | 0.0 | 0.0 | 0.00 | 0.00 | 0.00 | 83 | 1010.2 |
| 20260508074153 | 43 | 286 | 0.0 | 0.0 | 0.00 | 0.00 | 0.00 | 83 | 1010.3 |
| 20260508073649 | 43 | 286 | 0.0 | 0.0 | 0.00 | 0.00 | 0.00 | 83 | 1010.1 |
| 20260508073145 | 43 | 287 | 0.0 | 0.0 | 0.00 | 0.00 | 0.00 | 83 | 1010.3 |
| 20260508072647 | 42 | 287 | 0.0 | 0.0 | 0.00 | 0.00 | 0.00 | 83 | 1010.4 |
| 20260508072144 | 42 | 286 | 0.0 | 1.0 | 0.00 | 0.00 | 0.00 | 83 | 1010.5 |
| 20260508071646 | 42 | 286 | 0.0 | 1.0 | 0.00 | 0.00 | 0.00 | 83 | 1010.4 |
| 20260508071144 | 42 | 286 | 0.0 | 0.0 | 0.00 | 0.00 | 0.00 | 84 | 1010.4 |
| 20260508070647 | 42 | 286 | 0.0 | 0.0 | 0.00 | 0.00 | 0.00 | 86 | 1010.3 |
| 20260508070145 | 42 | 287 | 0.0 | 0.0 | 0.00 | 0.00 | 0.00 | 87 | 1010.4 |
| 20260508065643 | 41 | 287 | 0.0 | 0.0 | 0.00 | 0.00 | 0.00 | 88 | 1010.4 |
| 20260508065210 | 41 | 287 | 0.0 | 0.0 | 0.00 | 0.00 | 0.00 | 88 | 1010.3 |
| 20260508064634 | 41 | 287 | 0.0 | 0.0 | 0.00 | 0.00 | 0.00 | 88 | 1010.3 |
| 20260508064134 | 41 | 287 | 0.0 | 0.0 | 0.00 | 0.00 | 0.00 | 88 | 1010.3 |
| 20260508063636 | 41 | 287 | 0.0 | 0.0 | 0.00 | 0.00 | 0.00 | 88 | 1010.3 |
| 20260508063155 | 41 | 287 | 0.0 | 1.0 | 0.00 | 0.00 | 0.00 | 88 | 1010.3 |
| 20260508062637 | 41 | 287 | 0.0 | 1.0 | 0.00 | 0.00 | 0.00 | 88 | 1010.4 |
| 20260508062137 | 41 | 286 | 0.0 | 1.0 | 0.00 | 0.00 | 0.00 | 88 | 1010.3 |
| 20260508061640 | 41 | 294 | 0.0 | 0.0 | 0.00 | 0.00 | 0.00 | 87 | 1010.4 |
| 20260508061202 | 41 | 294 | 0.0 | 0.0 | 0.00 | 0.00 | 0.00 | 87 | 1010.4 |
| 20260508060643 | 41 | 294 | 0.0 | 0.0 | 0.00 | 0.00 | 0.00 | 87 | 1010.5 |
| 20260508060133 | 40 | 294 | 0.0 | 0.0 | 0.00 | 0.00 | 0.00 | 87 | 1010.6 |
| 20260508055634 | 40 | 294 | 0.0 | 0.0 | 0.00 | 0.00 | 0.00 | 86 | 1010.6 |
| 20260508055151 | 40 | 294 | 0.0 | 0.0 | 0.00 | 0.00 | 0.00 | 86 | 1010.6 |
| 20260508054653 | 41 | 294 | 0.0 | 0.0 | 0.00 | 0.00 | 0.00 | 86 | 1010.5 |
| 20260508054133 | 41 | 294 | 0.0 | 0.0 | 0.00 | 0.00 | 0.00 | 85 | 1010.6 |
| 20260508053633 | 41 | 294 | 0.0 | 0.0 | 0.00 | 0.00 | 0.00 | 85 | 1010.6 |
| 20260508053153 | 41 | 294 | 0.0 | 0.0 | 0.00 | 0.00 | 0.00 | 84 | 1010.6 |
| 20260508052635 | 41 | 294 | 0.0 | 0.0 | 0.00 | 0.00 | 0.00 | 83 | 1010.6 |
| 20260508052154 | 42 | 294 | 0.0 | 0.0 | 0.00 | 0.00 | 0.00 | 83 | 1010.6 |
| 20260508051639 | 42 | 294 | 0.0 | 0.0 | 0.00 | 0.00 | 0.00 | 82 | 1010.6 |
| 20260508051138 | 42 | 294 | 0.0 | 0.0 | 0.00 | 0.00 | 0.00 | 81 | 1010.7 |
| 20260508050639 | 43 | 294 | 0.0 | 0.0 | 0.00 | 0.00 | 0.00 | 81 | 1010.6 |
| 20260508050145 | 43 | 294 | 0.0 | 0.0 | 0.00 | 0.00 | 0.00 | 80 | 1010.6 |
| 20260508045649 | 43 | 294 | 0.0 | 0.0 | 0.00 | 0.00 | 0.00 | 80 | 1010.5 |
| 20260508044647 | 44 | 294 | 0.0 | 2.0 | 0.00 | 0.00 | 0.00 | 78 | 1010.7 |
| 20260508044145 | 44 | 294 | 0.0 | 2.0 | 0.00 | 0.00 | 0.00 | 77 | 1010.8 |
| 20260508043647 | 45 | 294 | 0.0 | 2.0 | 0.00 | 0.00 | 0.00 | 76 | 1010.7 |
| 20260508043211 | 45 | 73 | 0.0 | 2.0 | 0.00 | 0.00 | 0.00 | 75 | 1010.6 |
| 20260508042633 | 46 | 72 | 1.0 | 2.0 | 0.00 | 0.00 | 0.00 | 72 | 1010.7 |
| 20260508042133 | 47 | 72 | 0.0 | 6.0 | 0.00 | 0.00 | 0.00 | 68 | 1010.7 |
| 20260508041638 | 47 | 273 | 3.0 | 6.0 | 0.00 | 0.00 | 0.00 | 65 | 1010.8 |
| 20260508041136 | 48 | 110 | 0.0 | 7.0 | 0.00 | 0.00 | 0.00 | 63 | 1010.7 |
| 20260508040707 | 48 | 272 | 2.0 | 7.0 | 0.00 | 0.00 | 0.00 | 63 | 1010.7 |
| 20260508040151 | 48 | 265 | 0.0 | 2.0 | 0.00 | 0.00 | 0.00 | 63 | 1010.6 |
| 20260508035654 | 48 | 250 | 1.0 | 1.0 | 0.00 | 0.00 | 0.00 | 63 | 1010.4 |
| 20260508035153 | 48 | 233 | 0.0 | 1.0 | 0.00 | 0.00 | 0.00 | 62 | 1010.4 |
| 20260508034656 | 48 | 225 | 0.0 | 0.0 | 0.00 | 0.00 | 0.00 | 61 | 1010.3 |
| 20260508034156 | 48 | 225 | 0.0 | 0.0 | 0.00 | 0.00 | 0.00 | 61 | 1010.2 |
| 20260508033644 | 48 | 225 | 0.0 | 0.0 | 0.00 | 0.00 | 0.00 | 60 | 1010.3 |
| 20260508033149 | 48 | 226 | 0.0 | 0.0 | 0.00 | 0.00 | 0.00 | 59 | 1010.3 |
| 20260508032631 | 49 | 225 | 0.0 | 0.0 | 0.00 | 0.00 | 0.00 | 59 | 1010.4 |
| 20260508032132 | 49 | 225 | 0.0 | 1.0 | 0.00 | 0.00 | 0.00 | 59 | 1010.3 |
| 20260508031636 | 49 | 225 | 0.0 | 1.0 | 0.00 | 0.00 | 0.00 | 59 | 1010.2 |
| 20260508031133 | 49 | 238 | 0.0 | 0.0 | 0.00 | 0.00 | 0.00 | 57 | 1010.5 |
| 20260508030704 | 49 | 240 | 0.0 | 0.0 | 0.00 | 0.00 | 0.00 | 56 | 1010.7 |
| 20260508030147 | 49 | 257 | 0.0 | 0.0 | 0.00 | 0.00 | 0.00 | 56 | 1010.6 |
| 20260508025650 | 49 | 257 | 0.0 | 0.0 | 0.00 | 0.00 | 0.00 | 56 | 1010.7 |
| 20260508025146 | 49 | 257 | 0.0 | 0.0 | 0.00 | 0.00 | 0.00 | 56 | 1010.8 |
| 20260508024631 | 49 | 257 | 0.0 | 2.0 | 0.00 | 0.00 | 0.00 | 55 | 1010.8 |
| 20260508024132 | 49 | 284 | 0.0 | 2.0 | 0.00 | 0.00 | 0.00 | 55 | 1010.8 |
| 20260508023635 | 49 | 263 | 0.0 | 2.0 | 0.00 | 0.00 | 0.00 | 54 | 1010.8 |
| 20260508023140 | 49 | 253 | 1.0 | 2.0 | 0.00 | 0.00 | 0.00 | 54 | 1010.7 |
| 20260508022644 | 49 | 210 | 0.0 | 1.0 | 0.00 | 0.00 | 0.00 | 54 | 1010.7 |
| 20260508022209 | 49 | 301 | 0.0 | 0.0 | 0.00 | 0.00 | 0.00 | 53 | 1010.6 |
| 20260508021633 | 49 | 301 | 0.0 | 0.0 | 0.00 | 0.00 | 0.00 | 53 | 1010.6 |
| 20260508021133 | 49 | 301 | 0.0 | 1.0 | 0.00 | 0.00 | 0.00 | 54 | 1010.6 |
| 20260508020636 | 49 | 302 | 0.0 | 1.0 | 0.00 | 0.00 | 0.00 | 54 | 1010.7 |
| 20260508020140 | 49 | 302 | 0.0 | 0.0 | 0.00 | 0.00 | 0.00 | 54 | 1010.5 |
| 20260508015641 | 49 | 302 | 0.0 | 0.0 | 0.00 | 0.00 | 0.00 | 53 | 1010.6 |
| 20260508015140 | 49 | 302 | 0.0 | 0.0 | 0.00 | 0.00 | 0.00 | 52 | 1010.6 |
| 20260508014646 | 49 | 302 | 0.0 | 0.0 | 0.00 | 0.00 | 0.00 | 53 | 1010.6 |
| 20260508014148 | 49 | 302 | 0.0 | 0.0 | 0.00 | 0.00 | 0.00 | 53 | 1010.5 |
| 20260508013632 | 49 | 302 | 0.0 | 1.0 | 0.00 | 0.00 | 0.00 | 53 | 1010.5 |
| 20260508013217 | 50 | 302 | 0.0 | 1.0 | 0.00 | 0.00 | 0.00 | 52 | 1010.4 |
| 20260508012658 | 50 | 309 | 0.0 | 3.0 | 0.00 | 0.00 | 0.00 | 53 | 1010.3 |
| 20260508012139 | 50 | 309 | 0.0 | 3.0 | 0.00 | 0.00 | 0.00 | 51 | 1010.3 |
| 20260508011710 | 50 | 337 | 0.0 | 1.0 | 0.00 | 0.00 | 0.00 | 51 | 1010.2 |
| 20260508011146 | 50 | 271 | 0.0 | 1.0 | 0.00 | 0.00 | 0.00 | 49 | 1010.1 |
| 20260508010650 | 50 | 271 | 0.0 | 4.0 | 0.00 | 0.00 | 0.00 | 49 | 1010.1 |
| 20260508010149 | 51 | 271 | 0.0 | 5.0 | 0.00 | 0.00 | 0.00 | 48 | 1010.1 |
| 20260508005631 | 51 | 307 | 2.0 | 5.0 | 0.00 | 0.00 | 0.00 | 47 | 1010.1 |
| 20260508005153 | 51 | 259 | 2.0 | 9.0 | 0.00 | 0.00 | 0.00 | 47 | 1010.1 |
| 20260508004634 | 51 | 241 | 4.0 | 9.0 | 0.00 | 0.00 | 0.00 | 47 | 1010.1 |
| 20260508004134 | 51 | 263 | 3.0 | 7.0 | 0.00 | 0.00 | 0.00 | 46 | 1010.1 |
| 20260508003635 | 51 | 316 | 0.0 | 4.0 | 0.00 | 0.00 | 0.00 | 47 | 1010.1 |
| 20260508003135 | 51 | 250 | 1.0 | 2.0 | 0.00 | 0.00 | 0.00 | 46 | 1010.2 |
| 20260508002638 | 51 | 272 | 1.0 | 2.0 | 0.00 | 0.00 | 0.00 | 45 | 1010.1 |
| 20260508002157 | 52 | 245 | 1.0 | 2.0 | 0.00 | 0.00 | 0.00 | 44 | 1010.0 |
| 20260508001641 | 52 | 244 | 0.0 | 4.0 | 0.00 | 0.00 | 0.00 | 44 | 1009.9 |
| 20260508001207 | 52 | 259 | 2.0 | 7.0 | 0.00 | 0.00 | 0.00 | 44 | 1009.9 |
| 20260508000651 | 52 | 249 | 3.0 | 7.0 | 0.00 | 0.00 | 0.00 | 43 | 1009.8 |
| 20260508000150 | 52 | 277 | 1.0 | 5.0 | 0.00 | 0.00 | 0.00 | 43 | 1009.9 |
| 20260507235633 | 52 | 278 | 2.0 | 5.0 | 0.00 | 0.00 | 0.00 | 43 | 1009.9 |
| 20260507235147 | 52 | 285 | 3.0 | 6.0 | 0.00 | 0.00 | 0.00 | 43 | 1009.9 |
| 20260507234650 | 53 | 262 | 2.0 | 8.0 | 0.00 | 0.00 | 0.00 | 42 | 1009.9 |
| 20260507234150 | 53 | 266 | 5.0 | 9.0 | 0.00 | 0.00 | 0.00 | 41 | 1009.9 |
| 20260507233633 | 53 | 248 | 3.0 | 7.0 | 0.00 | 0.00 | 0.00 | 41 | 1009.9 |
| 20260507233152 | 53 | 299 | 4.0 | 7.0 | 0.00 | 0.00 | 0.00 | 40 | 1009.9 |
| 20260507232655 | 54 | 266 | 1.0 | 7.0 | 0.00 | 0.00 | 0.00 | 40 | 1009.8 |
| 20260507232215 | 54 | 257 | 4.0 | 8.0 | 0.00 | 0.00 | 0.00 | 39 | 1009.9 |
| 20260507231657 | 54 | 287 | 4.0 | 13.0 | 0.00 | 0.00 | 0.00 | 39 | 1009.9 |
| 20260507231156 | 54 | 305 | 4.0 | 13.0 | 0.00 | 0.00 | 0.00 | 39 | 1010.0 |
| 20260507230704 | 54 | 269 | 3.0 | 15.0 | 0.00 | 0.00 | 0.00 | 40 | 1010.0 |
| 20260507230146 | 54 | 267 | 6.0 | 18.0 | 0.00 | 0.00 | 0.00 | 39 | 1009.9 |
| 20260507225631 | 54 | 309 | 10.0 | 18.0 | 0.00 | 0.00 | 0.00 | 39 | 1010.0 |